Regional Weather Roundup
Issued by NWS

Home | Current Version | Previous Version | Graphics & Text | Print | Product List | Glossary On
Versions: 1 2 3 4 5 6 7 8 9 10 11 12 13 14 15 16 17 18 19 20 21 22 23 24 25 26 27 28 29 30 31 32 33 34 35 36 37 38 39 40 41 42 43 44 45 46 47 48 49 50
000
ASUS43 KLMK 202202
RWRKY
KENTUCKY REGIONAL WEATHER ROUNDUP
NATIONAL WEATHER SERVICE LOUISVILLE KY
500 PM EST FRI JAN 20 2017

NOTE "FAIR" INDICATES FEW OR NO CLOUDS BELOW 12,000 FEET
WITH NO SIGNIFICANT WEATHER AND/OR OBSTRUCTIONS TO VISIBILITY.

KYZ001>023-026-027-061>063-070>075-202300-
WESTERN AND SOUTH CENTRAL KENTUCKY

CITY           SKY/WX    TMP DP  RH WIND       PRES   REMARKS
PADUCAH        CLOUDY    61  51  70 S9        29.65R
HENDERSON      CLOUDY    61  52  72 S9        29.66F
OWENSBORO      MOCLDY    61  54  77 S9        29.69S
HOPKINSVILLE   MOSUNNY   65  53  66 S10       29.68F
BOWLING GREEN  CLOUDY    65  53  65 S10       29.72S
GLASGOW        NOT AVBL
$$

KYZ024-025-028>034-038-045-046-053-202300-
NORTH CENTRAL KENTUCKY

CITY           SKY/WX    TMP DP  RH WIND       PRES   REMARKS
LOUISVILLE/SDF CLOUDY    62  48  60 S8        29.72R
LOUISVILLE/LOU CLOUDY    62  48  60 S8        29.73R
FORT KNOX      CLOUDY    60  51  72 S7        29.71R
$$

KYZ035>037-039>044-047>052-055>060-089>105-202300-
NORTHEAST KENTUCKY

CITY           SKY/WX    TMP DP  RH WIND       PRES   REMARKS
LEXINGTON      MOCLDY    61  48  62 SW8G18    29.75R
COVINGTON      MOCLDY    59  49  69 SW9       29.72R
FRANKFORT      CLOUDY    61  48  62 SW8       29.73R
$$

KYZ054-064>069-076>088-106>120-202300-
SOUTHEAST KENTUCKY

CITY           SKY/WX    TMP DP  RH WIND       PRES   REMARKS
JACKSON        PTCLDY    64  50  60 SW6       29.76R
LONDON         CLEAR     64  45  49 SW6       29.77R
SOMERSET       PTCLDY    63  45  51 SW5       29.78S
MIDDLESBORO    CLOUDY    65  51  60 S8        29.79R
MONTICELLO     PTCLDY    64  49  57 VRB3      29.78S
$$




USA.gov is the U.S. government's official web portal to all federal, state and local government web resources and services.